导读

CHINASAT 4A是由中国于2024年8月22日成功发射的通信卫星,作为中国中星系列卫星家族新成员,该卫星定点地球同步轨道,主要为覆盖区域提供广播电视传输、宽带通信等服务,进一步完善中国通信卫星网络布局,增强空间通信基础设施服务能力,满足公众多样化通信、广播信息服务需求,助力数字中国建设与区域通信保障能力提升。

Basic Information
目录编号:
60606
目录名称:
CHINASAT 4A
国际标识:
2024-151A
轨道中心:
EARTH
卫星名称:
中星 4A 通信卫星
卫星全名:
卫星状态:
在轨 (已飞行691 天)
发射日期:
2024-08-22 UTC
国别 :
中国 (CN)
星等 :
--
Orbit Information
数据来源 国际轨道数据 AOE轨道数据
星历时间 2026-07-14T04:52:13+0800
9小时前
查看轨道信息
2026-07-14T01:00:00+0800
13小时前
查看轨道信息
半长轴 42165.822km 42165.709km
偏心率 0.0000397 0.0000633
轨道倾角 1.247° 1.247°
近地点辐角 302.746° 306.957°
升交点赤经 270.510° 270.526°
平近点角 149.729° 87.291°
近地点 35786.011km 35784.902km
远地点 35789.359km 35790.242km
周期 1436.153分钟 1436.147分钟
每日圈数 1.002679 1.002683
Detailed Information
使用方式:
暂无
2D Orbit Map
3D Orbit Map
Orbit Altitude Analysis Chart
Orbit Inclination Analysis Chart
Orbit Comprehensive Analysis Chart
View Comprehensive Chart